Tracking 30995 objects as of 7-Jul-2025
HD Live streaming from Space Station
objects crossing your sky now

STARLINK-31866

Track STARLINK-31866 now!
10-day predictions
STARLINK-31866 is classified as:


NORAD ID: 59668
Int'l Code: 2024-084Q
Perigee: 489.6 km
Apogee: 490.9 km
Inclination: 43.0 °
Period: 94.3 minutes
Semi major axis: 6861 km
RCS: Unknown
Launch date: May 6, 2024
Source: United States (US)
Launch site: AIR FORCE EASTERN TEST RANGE (AFETR)
Your satellite tracking list
Your tracking list is empty




NASA's NSSDC Master Catalog

Two Line Element Set (TLE):
1 59668U 24084Q   25187.47793054 -.00001678  00000-0 -51496-4 0  9997
2 59668  43.0019 344.8688 0000957 264.1300  95.9443 15.27567854 66805
Source of the keplerian elements: AFSPC